Home > Weather > Townsville > Past weeks

Flag for Australia Past Weather in Townsville, Queensland, Australia — Yesterday and Last 2 Weeks

Now
81 °F

Scattered clouds.


Feels Like: 83 °F
Forecast: 68 / 77 °F
Wind: 15 mph from North

Location: Townsville Amo

Current Time: Aug 24, 2016 at 4:37:58 PM

Latest Report: Aug 24, 2016 at 4:00 PM


Visibility: N/A

Pressure: 29.74 "Hg

Humidity: 66%

Dew Point: 68 °F

Location of TownsvilleLocation

Past Weather in Townsville — Graph

°F

Townsville Temperature Yesterday

Maximum temperature yesterday: 81 °F (at 1:30 PM)
Minimum temperature yesterday: 63 °F (at 5:00 AM)
Average temperature yesterday: 72 °F

High & Low Weather Summary for the Past Weeks

 TemperatureHumidityPressure
High84 °F (Aug 24, 1:30 PM)100% (Aug 11, 2:00 AM)30.15 "Hg (Aug 11, 2:00 AM)
Low59 °F (Aug 10, 6:00 AM)32% (Aug 14, 11:30 AM)29.77 "Hg (Aug 24, 2:00 PM)
Average71 °F74%30.03 "Hg
* Reported Aug 9 3:00 PM — Aug 24 3:00 PM, Townsville, Weather by CustomWeather, © 2016

Note: Actual official high and low records may vary slightly from our data, if they occured in-between our weather recording intervals... More about our weather records

Advertising

Townsville Weather History for the Previous 24 Hours

Scroll right to see more
 ConditionsComfort  
Time TempWeatherWind HumidityBarometerVisibility
3:00 PM
Wed, Aug 24
82 °FScattered clouds.14 mph58%29.77 "HgN/A
2:30 PM82 °FScattered clouds.15 mph55%29.77 "HgN/A
2:00 PM82 °FScattered clouds.12 mph55%29.77 "HgN/A
1:30 PM84 °FScattered clouds.12 mph51%29.80 "HgN/A
1:00 PM82 °FScattered clouds.14 mph55%29.80 "HgN/A
12:30 PM82 °FPassing clouds.10 mph55%29.83 "HgN/A
12:00 PM82 °FPassing clouds.10 mph55%29.83 "HgN/A
11:00 AM81 °FPassing clouds.12 mph62%29.86 "HgN/A
10:30 AM81 °FPassing clouds.12 mph66%29.89 "HgN/A
10:00 AM79 °FPassing clouds.13 mph70%29.89 "HgN/A
9:30 AM77 °FPassing clouds.13 mph74%29.89 "HgN/A
9:00 AM77 °FPassing clouds.12 mph74%29.89 "HgN/A
8:00 AM75 °FPassing clouds.8 mph78%29.89 "HgN/A
7:00 AM72 °FScattered clouds.No wind94%29.86 "HgN/A
6:00 AM72 °FPassing clouds.6 mph94%29.83 "HgN/A
5:00 AM72 °FPartly cloudy.6 mph94%29.80 "HgN/A
4:30 AM72 °FMostly cloudy.3 mph94%29.80 "HgN/A
4:00 AM70 °FOvercast.6 mph100%29.80 "HgN/A
3:00 AM70 °FClear.5 mph94%29.80 "HgN/A
2:00 AM72 °FPartly cloudy.7 mph94%29.83 "HgN/A
1:00 AM72 °FClear.7 mph94%29.83 "HgN/A
12:00 AM73 °FPartly cloudy.7 mph89%29.86 "HgN/A
11:30 PM
Tue, Aug 23
73 °FOvercast.8 mph89%29.86 "HgN/A
11:00 PM73 °FMostly cloudy.8 mph89%29.86 "HgN/A
10:00 PM72 °FClear.8 mph88%29.86 "HgN/A
9:00 PM72 °FClear.9 mph88%29.86 "HgN/A
8:30 PM73 °FClear.8 mph83%29.86 "HgN/A
8:00 PM73 °FClear.9 mph83%29.86 "HgN/A
7:30 PM72 °FClear.7 mph88%29.86 "HgN/A
7:00 PM72 °FClear.8 mph88%29.83 "HgN/A
6:30 PM72 °FClear.6 mph83%29.83 "HgN/A
6:00 PM73 °FSunny.8 mph83%29.80 "HgN/A
5:00 PM77 °FPassing clouds.8 mph65%29.80 "HgN/A
4:30 PM79 °FPassing clouds.9 mph61%29.80 "HgN/A
4:00 PM79 °FPassing clouds.10 mph65%29.80 "HgN/A
Weather by CustomWeather, © 2016

See weather overviewHow to use our weather pages